Wind_Speed
6 6 6 7 9 11 13 14 14 15 17 20 25 29 34 39 44 49 53 57 61 64 67 70 72 74 75 76 75 74 72 72 73 74 75 76 76 75 74 74 74 74 74 74
4 5 6 8 10 12 14 15 16 18 21 25 29 34 39 45 50 55 59 63 66 69 73 76 78 80 82 84 85 85 84 81 80 80 81 82 82 82 82 80 79 80 80 80
6 7 10 11 12 13 14 17 20 23 26 29 34 40 46 52 57 63 66 69 72 76 80 83 85 87 88 88 89 89 89 89 89 88 88 88 87 87 87 87 86 86 86 84
8 10 12 12 14 16 18 20 24 28 31 34 40 48 53 59 64 67 70 74 78 82 85 87 87 87 87 86 86 85 84 84 84 84 85 86 87 87 86 86 86 87 88 88
11 12 13 14 16 18 21 24 28 31 35 40 46 54 59 64 68 71 75 78 81 84 85 85 84 82 80 77 75 71 67 65 65 65 65 64 63 63 63 65 67 72 75 77
14 16 17 18 19 22 25 29 33 36 40 46 51 58 63 67 71 75 79 80 82 83 83 80 77 73 68 63 58 55 55 55 55 53 51 47 43 41 39 38 40 44 50 56
17 18 20 21 22 25 28 31 35 39 44 48 54 60 66 70 75 78 80 81 81 80 76 72 68 61 55 51 50 52 53 51 49 47 45 41 38 34 30 27 27 29 32 35
20 19 21 22 25 30 32 33 36 40 45 50 56 61 68 73 77 79 80 79 77 72 68 64 59 54 49 48 50 51 51 49 48 46 43 40 37 33 28 24 23 23 24 26
21 21 23 25 29 32 34 35 38 43 49 55 59 64 70 75 78 79 78 75 69 63 60 58 54 50 48 47 50 51 51 49 47 45 42 39 36 33 29 26 24 23 22 22
23 23 24 26 29 31 34 38 43 48 54 59 63 68 73 76 77 78 77 70 62 56 55 54 51 49 48 48 50 53 52 50 48 45 42 39 35 33 30 27 25 24 24 25
22 23 24 25 28 32 36 41 45 51 56 62 67 71 74 76 77 78 74 65 56 52 52 53 53 52 51 51 53 54 53 51 48 45 43 40 37 35 32 30 29 28 28 29
21 23 25 26 28 33 38 44 49 54 59 63 67 72 75 77 77 76 70 61 53 51 53 55 56 56 55 55 56 56 55 52 50 47 45 43 41 39 37 35 34 33 33 33
22 24 26 28 31 36 42 49 53 56 60 64 68 71 75 76 75 72 65 57 50 50 54 57 59 59 58 58 57 57 55 54 52 50 49 48 46 45 42 40 39 38 38 37
23 25 27 30 34 39 46 51 54 57 62 66 68 71 74 75 74 69 61 54 49 51 55 58 61 62 61 60 59 59 58 56 55 54 53 51 50 49 48 46 44 43 41 40
24 26 28 31 35 40 47 52 55 59 64 67 70 73 75 76 74 67 59 52 49 52 57 61 63 64 64 63 61 60 59 57 56 54 53 52 52 51 50 49 48 46 44 42
27 29 30 33 37 41 48 53 58 63 67 69 70 73 76 76 72 65 56 51 50 55 61 64 65 65 64 61 57 54 53 52 52 52 51 50 49 48 47 46 46 47 46 44
29 31 34 36 39 44 51 57 62 67 68 70 71 74 77 75 69 62 54 51 54 59 65 67 67 64 58 55 54 54 54 55 55 54 53 52 50 48 45 43 42 43 44 44
31 33 35 38 43 49 54 59 65 68 68 71 72 75 77 74 65 57 53 53 57 62 66 66 62 56 53 53 53 55 56 57 58 58 56 54 51 48 44 41 39 38 40 42
31 33 36 41 46 51 57 63 67 69 68 71 72 75 75 70 61 55 54 56 60 64 65 61 56 52 52 52 54 56 58 59 60 59 57 54 51 48 43 39 35 33 34 37
31 33 38 44 49 55 60 64 68 70 69 71 72 74 72 66 59 56 56 59 62 64 60 55 52 51 51 52 54 57 59 60 61 60 58 54 52 50 46 40 34 30 29 29
35 38 41 46 50 56 62 67 70 69 69 70 72 73 69 61 56 57 59 61 63 60 55 51 50 51 51 53 56 58 60 61 62 62 59 55 52 50 48 44 38 32 28 26
39 42 44 47 51 58 63 68 69 68 69 69 71 71 64 58 56 58 61 61 61 55 51 49 49 51 52 54 57 59 61 63 64 62 59 56 53 50 48 45 42 37 31 27
39 41 43 47 52 58 64 68 68 68 67 68 70 68 61 56 56 59 60 61 58 52 49 48 49 50 52 55 58 60 62 64 64 62 59 56 53 51 49 46 43 39 35 30
40 41 44 48 54 60 66 69 68 67 66 68 69 65 59 55 57 60 60 59 54 49 46 47 49 50 52 55 58 60 63 65 63 61 59 58 57 55 52 49 45 40 36 32
41 43 46 49 55 61 66 68 67 66 66 68 67 62 58 56 58 59 59 56 51 46 45 47 50 52 53 55 58 61 63 65 62 59 59 60 62 60 55 50 46 41 35 32
40 43 46 50 56 62 66 68 66 64 64 66 66 61 57 57 58 59 58 53 47 44 45 48 51 52 53 55 58 61 64 66 62 58 58 60 63 63 60 53 46 42 37 32
Wind_Direction
59 38 10 353 342 334 330 329 330 331 331 331 331 330 329 324 320 318 316 313 311 309 308 306 305 303 301 300 298 294 289 283 279 274 271 269 267 267 267 267 266 265 264 263
11 343 322 316 319 321 322 322 323 325 326 325 322 321 321 319 318 317 315 313 311 310 308 306 304 302 300 298 296 293 289 285 280 275 271 268 265 262 261 261 263 264 264 263
318 314 309 314 322 328 329 326 322 320 318 318 317 317 318 318 318 317 316 314 313 310 308 308 307 305 302 298 296 294 293 292 290 286 281 274 270 267 265 263 261 259 259 259
310 306 307 314 326 331 328 323 319 316 316 317 317 316 317 319 318 318 316 316 315 314 313 312 310 306 303 300 299 300 301 301 300 298 295 291 286 280 274 269 265 262 261 259
309 309 312 319 324 325 322 320 317 315 314 315 316 317 318 318 318 318 318 319 318 318 317 314 311 309 307 307 308 309 310 310 310 308 305 302 297 291 285 278 272 267 264 263
314 318 323 325 325 323 322 321 319 316 315 317 319 320 319 319 320 320 320 321 321 321 318 316 314 313 313 314 316 317 318 319 319 318 316 313 308 302 293 281 272 267 264 262
317 321 323 325 325 324 325 323 320 319 321 322 321 320 320 321 321 322 322 323 324 322 320 319 318 319 319 320 320 321 322 324 325 324 323 321 317 312 301 287 273 264 259 258
316 319 322 324 323 322 323 324 326 326 324 321 320 321 322 322 323 323 324 326 325 323 324 324 324 323 323 323 324 325 326 327 328 327 327 324 322 318 311 299 285 272 265 262
312 317 321 322 323 324 326 329 330 327 324 323 323 323 322 323 324 325 327 328 326 327 329 329 327 324 323 324 326 328 328 329 329 328 328 326 323 319 313 304 294 285 280 276
313 318 322 325 326 328 332 333 332 329 325 324 325 325 325 325 327 328 329 329 328 331 333 332 328 324 323 323 324 326 328 327 326 326 325 324 323 319 314 305 295 288 284 283
317 322 325 329 334 335 335 334 332 329 327 326 326 326 326 327 330 331 331 330 329 332 335 335 332 327 323 322 322 323 323 323 321 320 319 318 316 313 310 305 297 289 283 281
323 325 326 331 334 335 335 334 334 332 330 328 327 328 328 330 332 331 331 329 329 332 335 336 334 330 326 322 321 320 319 318 317 315 313 311 309 306 303 299 295 291 286 282
327 328 327 331 334 337 337 336 335 333 331 330 329 330 330 332 333 331 329 328 328 332 335 335 333 331 328 324 322 319 318 316 314 311 308 306 303 301 298 296 293 290 287 284
328 328 329 333 335 336 336 335 335 334 333 331 331 331 332 333 334 332 330 328 330 333 335 334 333 331 329 327 325 322 320 318 315 312 308 304 300 297 293 291 289 287 285 283
327 326 327 330 331 333 333 334 335 336 335 333 333 333 333 334 335 335 332 330 332 334 334 334 333 331 330 328 326 324 323 322 320 318 315 310 305 299 293 288 284 282 281 280
324 324 326 328 328 331 333 335 337 338 336 334 335 334 334 335 336 337 335 332 333 334 334 334 333 332 331 331 333 335 336 335 333 330 327 322 316 308 299 290 283 278 275 274
323 324 325 327 328 331 336 337 338 338 337 335 335 335 336 337 339 340 338 336 337 335 335 334 334 335 337 340 342 343 343 343 341 339 336 331 326 319 310 299 286 277 271 267
322 323 325 327 329 334 337 337 338 337 337 336 336 336 337 339 342 342 340 339 337 335 335 335 337 340 343 345 347 348 348 347 346 344 342 339 335 330 323 314 300 285 273 264
321 324 327 329 331 333 336 338 338 337 337 337 336 337 339 342 343 344 342 340 338 336 337 339 342 345 347 349 349 348 347 347 347 346 344 342 341 339 335 328 317 302 288 273
321 324 327 329 332 335 337 337 337 336 337 337 337 338 341 343 344 345 343 341 339 338 340 343 345 348 350 350 349 349 349 348 348 347 345 344 343 342 340 337 331 320 306 290
322 325 329 331 334 336 337 337 337 337 338 337 338 341 343 345 345 344 343 341 340 341 343 345 347 349 350 351 350 350 350 349 348 348 347 345 344 343 343 341 337 330 319 306
323 326 330 331 334 336 336 336 336 337 337 338 339 342 344 345 345 344 343 342 342 343 344 347 349 349 350 350 350 350 350 350 349 348 347 346 345 343 343 342 340 335 327 317
321 325 328 330 331 333 335 336 336 336 337 338 340 344 345 345 345 344 343 343 343 344 346 349 350 350 350 350 350 351 351 351 351 350 350 350 348 345 343 341 339 335 331 324
319 323 327 328 329 332 334 335 335 336 337 338 342 344 345 345 345 344 344 344 345 346 349 351 352 352 351 351 351 352 352 353 353 354 354 354 352 349 344 340 337 333 329 325
318 323 326 327 328 331 333 335 335 336 337 339 343 345 345 345 345 344 344 345 346 348 351 353 354 354 354 354 353 354 354 355 355 355 356 356 356 353 348 343 338 333 329 323
317 321 325 327 329 331 333 335 335 336 336 340 344 346 345 345 345 345 346 347 348 351 353 354 355 355 355 355 355 356 356 356 357 357 358 358 358 356 352 348 342 336 331 325
Height
5852 5851 5849 5848 5847 5845 5843 5840 5837 5834 5831 5827 5824 5819 5815 5809 5803 5797 5789 5781 5772 5763 5754 5744 5734 5724 5714 5705 5696 5687 5678 5670 5663 5658 5653 5649 5646 5643 5641 5639 5638 5637 5637 5638
5852 5850 5849 5848 5846 5844 5842 5839 5835 5832 5829 5825 5820 5816 5811 5804 5797 5789 5780 5771 5761 5751 5740 5729 5718 5707 5696 5684 5673 5662 5651 5642 5635 5629 5624 5620 5618 5616 5615 5615 5615 5613 5613 5614
5852 5850 5848 5847 5844 5841 5839 5836 5833 5829 5826 5822 5816 5810 5805 5797 5788 5779 5769 5758 5747 5736 5724 5712 5700 5687 5673 5660 5646 5633 5621 5611 5603 5597 5592 5589 5587 5586 5586 5586 5587 5588 5588 5590
5851 5849 5847 5845 5842 5840 5837 5834 5830 5826 5821 5816 5811 5803 5797 5788 5779 5768 5757 5744 5732 5718 5704 5691 5677 5663 5648 5634 5622 5611 5599 5588 5577 5568 5559 5553 5549 5550 5552 5555 5558 5561 5562 5564
5850 5848 5846 5844 5842 5839 5836 5831 5827 5822 5816 5811 5803 5795 5789 5779 5768 5756 5743 5729 5715 5700 5685 5670 5655 5640 5626 5613 5602 5593 5583 5572 5560 5548 5538 5530 5523 5520 5519 5521 5527 5533 5537 5540
5849 5847 5845 5843 5840 5837 5833 5829 5824 5818 5811 5805 5797 5787 5779 5767 5755 5742 5728 5713 5698 5683 5667 5651 5636 5622 5610 5599 5590 5580 5571 5561 5549 5538 5527 5517 5510 5505 5502 5501 5503 5508 5513 5516
5847 5845 5843 5841 5838 5834 5830 5826 5820 5813 5805 5799 5790 5779 5769 5756 5742 5728 5714 5699 5683 5666 5651 5637 5623 5611 5600 5590 5581 5571 5561 5551 5540 5529 5519 5510 5503 5497 5493 5491 5491 5493 5496 5499
5845 5844 5841 5838 5835 5831 5826 5821 5814 5807 5799 5792 5782 5771 5759 5746 5731 5715 5700 5685 5668 5652 5637 5624 5611 5601 5591 5582 5572 5562 5552 5542 5532 5522 5513 5505 5498 5492 5487 5485 5484 5485 5486 5488
5843 5842 5839 5835 5831 5827 5821 5815 5809 5802 5793 5784 5774 5763 5749 5735 5720 5704 5688 5671 5655 5640 5627 5614 5602 5592 5583 5574 5564 5554 5544 5534 5525 5516 5508 5500 5493 5487 5483 5479 5477 5477 5477 5478
5840 5839 5836 5831 5827 5822 5817 5810 5803 5794 5784 5774 5764 5752 5738 5722 5708 5693 5676 5660 5645 5631 5618 5606 5595 5584 5575 5566 5556 5546 5537 5527 5518 5510 5502 5495 5489 5483 5479 5475 5472 5471 5470 5469
5837 5835 5831 5827 5822 5817 5812 5806 5797 5787 5776 5763 5751 5744 5727 5710 5695 5679 5664 5648 5634 5623 5611 5599 5588 5577 5567 5557 5548 5538 5529 5520 5511 5503 5496 5489 5483 5478 5473 5469 5466 5463 5462 5460
5834 5831 5827 5824 5819 5814 5808 5800 5791 5781 5769 5756 5742 5732 5712 5697 5682 5666 5650 5637 5625 5614 5603 5592 5581 5569 5559 5548 5538 5528 5519 5510 5502 5494 5487 5480 5474 5469 5465 5460 5457 5454 5451 5449
5831 5828 5824 5819 5817 5810 5802 5793 5784 5774 5763 5750 5735 5724 5702 5687 5672 5655 5639 5628 5618 5608 5597 5586 5574 5562 5550 5539 5527 5517 5507 5498 5490 5482 5475 5468 5462 5457 5453 5449 5445 5442 5439 5436
5828 5824 5821 5816 5810 5804 5797 5788 5778 5767 5754 5741 5727 5714 5698 5682 5666 5649 5634 5621 5610 5600 5590 5579 5567 5554 5541 5529 5517 5506 5495 5485 5476 5467 5460 5453 5447 5442 5437 5434 5430 5428 5425 5423
5824 5821 5816 5811 5806 5800 5792 5782 5771 5759 5745 5732 5718 5703 5688 5672 5654 5639 5625 5614 5605 5595 5584 5571 5558 5545 5532 5519 5507 5494 5483 5472 5461 5452 5443 5435 5429 5423 5419 5415 5413 5410 5409 5408
5820 5816 5812 5808 5801 5794 5786 5774 5763 5751 5737 5722 5709 5694 5678 5661 5644 5630 5618 5608 5599 5588 5576 5562 5548 5534 5521 5508 5496 5484 5473 5461 5450 5439 5429 5420 5411 5404 5399 5395 5393 5392 5391 5391
5816 5811 5806 5801 5794 5788 5778 5767 5755 5742 5728 5714 5701 5687 5669 5653 5637 5623 5611 5601 5591 5580 5567 5553 5539 5524 5511 5499 5488 5477 5465 5454 5442 5431 5419 5408 5397 5388 5381 5376 5373 5372 5371 5372
5811 5806 5800 5794 5789 5780 5775 5760 5747 5734 5720 5705 5690 5675 5659 5643 5629 5616 5605 5595 5585 5573 5559 5545 5531 5517 5505 5494 5483 5471 5460 5448 5436 5423 5411 5399 5388 5377 5368 5361 5356 5353 5353 5353
5807 5802 5795 5788 5781 5774 5764 5751 5739 5726 5714 5699 5683 5668 5653 5638 5625 5613 5601 5590 5578 5564 5551 5537 5524 5512 5501 5490 5479 5468 5456 5443 5430 5417 5405 5392 5381 5370 5360 5351 5344 5340 5337 5337
5802 5797 5792 5783 5775 5766 5758 5745 5731 5718 5705 5690 5676 5662 5646 5632 5620 5608 5595 5583 5569 5556 5543 5530 5519 5508 5498 5487 5476 5464 5451 5439 5426 5412 5399 5386 5374 5363 5353 5344 5336 5330 5326 5323
5796 5791 5786 5777 5769 5760 5749 5736 5723 5711 5698 5681 5667 5653 5638 5624 5611 5600 5588 5576 5562 5550 5537 5526 5515 5505 5495 5484 5472 5460 5447 5434 5420 5406 5393 5380 5368 5357 5347 5337 5329 5323 5318 5314
5791 5785 5779 5771 5762 5755 5743 5730 5718 5705 5689 5675 5661 5647 5632 5619 5607 5595 5583 5570 5558 5545 5534 5523 5513 5503 5492 5481 5469 5456 5443 5429 5415 5400 5387 5374 5362 5352 5342 5332 5323 5315 5309 5305
5786 5781 5774 5767 5760 5749 5737 5724 5711 5697 5684 5670 5657 5642 5628 5616 5604 5592 5579 5566 5554 5542 5532 5522 5511 5501 5489 5478 5466 5453 5440 5426 5411 5396 5382 5370 5357 5346 5336 5327 5318 5310 5302 5296
5780 5775 5769 5761 5752 5742 5730 5717 5705 5691 5678 5665 5650 5636 5623 5612 5600 5588 5575 5563 5551 5540 5530 5521 5510 5499 5488 5476 5463 5450 5436 5422 5407 5393 5379 5366 5354 5342 5330 5319 5310 5302 5295 5289
5774 5768 5762 5755 5746 5736 5724 5711 5699 5685 5672 5659 5645 5631 5619 5608 5597 5584 5572 5559 5548 5538 5529 5519 5509 5498 5487 5475 5462 5448 5434 5420 5405 5391 5377 5364 5350 5337 5325 5312 5301 5293 5286 5279
5770 5764 5757 5749 5740 5730 5718 5705 5692 5680 5667 5654 5640 5627 5615 5605 5593 5581 5569 5556 5546 5537 5528 5518 5507 5496 5485 5473 5461 5447 5432 5418 5403 5389 5376 5362 5348 5334 5320 5307 5295 5284 5276 5270